• MPC Preparation (Info)

  • MPEC 2014-N27 : 2014 MJ55

    The following Minor Planet Electronic Circular may be linked-to from your own Web pages, but must not otherwise be redistributed electronically.

    A form allowing access to any MPEC is at the bottom of this page.


    Read MPEC 2014-N26 Read MPEC 2014-N28


    M.P.E.C. 2014-N27                                Issued 2014 July 5, 14:24 UT
    
         The Minor Planet Electronic Circulars contain information on unusual
             minor planets and routine data on comets.  They are published
       on behalf of Commission 20 of the International Astronomical Union by the
              Minor Planet Center, Smithsonian Astrophysical Observatory,
                              Cambridge, MA 02138, U.S.A.
    
                 Prepared using the Tamkin Foundation Computer Network
    
                                  MPC@CFA.HARVARD.EDU
                URL https://www.minorplanetcenter.net/    ISSN 1523-6714
    
                                       2014 MJ55
    
    Observations:
         K14M55J* C2014 06 30.47947 20 07 35.669-23 14 45.46         21.2 wLEN027F51
         K14M55J  C2014 06 30.49115 20 07 37.643-23 15 09.27         21.8 wLEN027F51
         K14M55J  C2014 06 30.50282 20 07 39.613-23 15 32.39         21.3 wLEN027F51
         K14M55J KC2014 07 01.42319 20 10 36.88 -23 47 28.0                oEN027291
         K14M55J KC2014 07 01.42545 20 10 37.34 -23 47 32.9                oEN027291
         K14M55J _C2014 07 01.42726020 10 39.796-23 47 30.35         21.1 RtEN027568
         K14M55J KC2014 07 01.42770 20 10 37.71 -23 47 37.4                oEN027291
         K14M55J _C2014 07 01.42851320 10 40.025-23 47 33.07         21.2 RtEN027568
         K14M55J _C2014 07 01.42976720 10 40.254-23 47 35.80         21.1 RtEN027568
         K14M55J KC2014 07 05.58011 20 27 17.18 -26 42 47.9          21.1 RtEN027474
         K14M55J KC2014 07 05.58246 20 27 17.81 -26 42 55.1          21.2 RtEN027474
         K14M55J KC2014 07 05.58482 20 27 18.41 -26 43 01.8                tEN027474
         K14M55J KC2014 07 05.58718 20 27 19.12 -26 43 09.4                tEN027474
    
    Observer details:
    291 LPL/Spacewatch II.  Observer R. S. McMillan.  1.8-m f/2.7 reflector + CCD.
    474 Mount John Observatory, Lake Tekapo.  Observers A. C. Gilmore,
        P. M. Kilmartin.  Measurer P. M. Kilmartin.  1.0-m f/7.7 reflector + CCD.
    568 Mauna Kea.  Observers R. J. Wainscoat, D. Woodworth.  Measurers M. Micheli,
        R. J. Wainscoat.  3.6-m Canada-France-Hawaii Telescope + CCD.
    F51 Pan-STARRS 1, Haleakala.  Observers N. Primak, A. Schultz, T. Goggia,
        M. Willman.  1.8-m Ritchey-Chretien + CCD.
    
    Orbital elements:
    2014 MJ55                                                Earth MOID = 0.0620 AU
    Epoch 2014 May 23.0 TT = JDT 2456800.5                  MPC
    M 321.51031              (2000.0)            P               Q
    n   0.36818669     Peri.  261.79683     +0.99156844     +0.00159165
    a   1.9279273      Node    98.04237     +0.04785356     +0.92474816
    e   0.5459830      Incl.    7.51937     -0.12042455     +0.38057628
    P   2.68           H   23.6           G   0.15           U   8
    Residuals in seconds of arc
    140630 F51  0.1-  0.1+    140701 568  0.2+  0.1-    140705 474  0.0   0.1-
    140630 F51  0.1-  0.3-    140701 291  0.1-  0.5+    140705 474  0.6-  0.2+
    140630 F51  0.0   0.0     140701 568  0.2+  0.1-    140705 474  0.4+  0.3-
    140701 291  0.1-  0.3+    140701 568  0.2+  0.1-
    140701 291  0.5+  0.2+    140705 474  0.1+  0.0
    
    Ephemeris:
    2014 MJ55                a,e,i = 1.93, 0.55, 8                   q = 0.8753
    Date    TT    R. A. (2000) Decl.     Delta      r     Elong.  Phase     V
    2014 06 05    19 22 05.0 -16 53 11   0.4666  1.4190   144.1    24.8    23.9
    ...
    2014 06 20    19 43 37.4 -19 12 19   0.3060  1.2980   154.0    20.1    22.6
    ...
    2014 06 28    20 00 31.5 -21 59 00   0.2309  1.2340   158.3    17.8    21.8
    ...
    2014 07 04    20 20 12.8 -25 29 08   0.1797  1.1867   159.6    17.4    21.2
    2014 07 05    20 24 33.7 -26 14 48   0.1716  1.1789   159.4    17.6    21.1
    2014 07 06    20 29 20.7 -27 04 17   0.1637  1.1712   159.2    18.0    20.9
    ...
    2014 07 12    21 12 17.7 -33 40 01   0.1202  1.1254   153.5    23.8    20.4
    ...
    2014 07 20    23 43 09.5 -45 13 43   0.08011 1.0671   127.8    48.8    20.1
    ...
    2014 08 04    05 14 33.5 -18 51 31   0.1172  0.9713    65.2   108.5    23.0
    
    A. U. Tomatic                (C) Copyright 2014 MPC           M.P.E.C. 2014-N27
    

    Read MPEC 2014-N26 Read MPEC 2014-N28


    MPEC number:

    Enter an MPEC number in one of the following forms:

    • 1997-B01 (the full form)
    • J97B01 (the packed version of the full form)
    • B01 (the abbreviated form)